Location: Vihti�l�
(61.3833°N, 23.0667°E)
Time: 03:28:22
(UTC+00:00)

Cosmos 909 Rocket - Pass Details

Date: 29 November 2020
Orbit: 992 x 2087 km, 65.9° (Epoch: 19 January)

Event Time Altitude Azimuth Distance (km) Brightness Sun altitude
Exits shadow 05:46:25 10° 303° (WNW) 2,766 5.7 -8.7°
Maximum altitude 05:52:35 65° 224° (SW) 1,092 4.2 -8.1°
Drops below altitude 10° 05:59:00 10° 144° (SE) 2,864 7.8 -7.4°
Sets 06:01:44 0° 142° (SE) 3,900 8.8 -7.2°
